Regional Weather Roundup
Issued by NWS

Home | Current Version | Previous Version | Text Only | Print | Product List | Glossary On
Versions: 1 2 3 4 5 6 7 8 9 10 11 12 13 14 15 16 17 18 19 20 21 22 23 24 25 26 27 28 29 30 31 32 33 34 35 36 37 38 39 40 41 42 43 44 45 46 47 48 49 50
000
ASUS45 KABQ 162310
RWRNM
WEATHER ROUNDUP FOR NEW MEXICO
NATIONAL WEATHER SERVICE ALBUQUERQUE NM
500 PM MDT TUE SEP 16 2014

NOTE: "FAIR" MEANS FEW OR NO CLOUDS BELOW 12,000 FEET AGL WITH NO
       SIGNIFICANT WEATHER OR OBSTRUCTIONS TO VISION.

      THIS PRODUCT IS RELEASED AS TWO VERSIONS.  ONE VERSION NEAR
      THE TOP OF THE HOUR CONTAINING PRELIMINARY DATA FROM ALBUQUERQUE
      AND OTHER STATIONS.  A FINAL VERSION WITH ADDITIONAL DATA IS
      ISSUED ABOUT 10 MINUTES AFTER THE HOUR.

NMZ501-503-504-510>518-170000-
NORTHWEST PLATEAU/NORTHCENTRAL MOUNTAINS

CITY           SKY/WX    TMP DP  RH WIND       PRES   REMARKS
FARMINGTON     SUNNY     85  44  23 VRB5      30.11F
LOS ALAMOS     PTSUNNY   72  49  44 S10       30.28F
SANTA FE       PTSUNNY   76  48  37 SW10      30.22F
ANGEL FIRE     FAIR      59  46  62 CALM      30.38S

$$
NMZ402-403-502-505>509-170000-
WESTCENTRAL MOUNTAINS/SOUTHWEST MOUNTAINS

CITY           SKY/WX    TMP DP  RH WIND       PRES   REMARKS
GALLUP         PTSUNNY   74  48  39 SE13      30.21F
GRANTS         CLOUDY    72  50  46 SE12      30.26S
SILVER CITY    CLOUDY    64  63  94 E13       30.21F

$$
NMZ407-409-411-412-170000-
SOUTHERN DESERTS

CITY           SKY/WX    TMP DP  RH WIND       PRES   REMARKS
LORDSBURG      CLOUDY    70  63  78 E12G18    30.10F
DEMING         CLOUDY    70  67  90 NE13      30.11F
LAS CRUCES     CLOUDY    74  63  68 E8        30.13F
ALAMOGORDO     CLOUDY    68  66  94 N7        30.15S
T OR C         HVY RAIN  64  63  96 NW5       30.18F VSB 3/4

$$
NMZ519>523-170000-
CENTRAL VALLEYS/CENTRAL HIGHLANDS

CITY           SKY/WX    TMP DP  RH WIND       PRES   REMARKS
ALBUQUERQUE    CLOUDY    70  59  68 S16       30.21S
DOUBLE EAGLE   CLOUDY    72  55  56 S9        30.23F
MORIARTY ARPT  FAIR      68  52  56 S8        30.26F
CLINES CORNERS CLOUDY    65  52  62 SW9       30.29F
BELEN          DRIZZLE   68  56  64 S10       30.21S
SOCORRO        RAIN      68  62  80 N3        30.19F

$$
NMZ524>526-539-540-170000-
SOUTHCENTRAL MOUNTAINS

CITY           SKY/WX    TMP DP  RH WIND       PRES   REMARKS
RUIDOSO        CLOUDY    57  57 100 SE7       30.33S

$$
NMZ527>531-170000-
NORTHEAST HIGHLANDS/NORTHEAST PLAINS

CITY           SKY/WX    TMP DP  RH WIND       PRES   REMARKS
LAS VEGAS      PTSUNNY   74  50  42 S15       30.25F
RATON          PTSUNNY   78  50  37 S16       30.19F
CLAYTON        MOSUNNY   75  56  51 SW18      30.14S

$$
NMZ532>537-170000-
EASTCENTRAL PLAINS

CITY           SKY/WX    TMP DP  RH WIND       PRES   REMARKS
TUCUMCARI      CLOUDY    78  59  51 SW15      30.11F
CANNON AFB     CLOUDY    72  61  68 SW15      30.17F
CLOVIS AIRPORT   N/A     72  61  68 SW13      30.18F

$$
NMZ028-029-538-170000-
SOUTHEAST PLAINS

CITY           SKY/WX    TMP DP  RH WIND       PRES   REMARKS
ROSWELL        CLOUDY    69  66  90 CALM      30.15F
CARLSBAD       PTSUNNY   78  71  79 NE6       30.10F
HOBBS          SUNNY     72  68  88 MISG      30.16F


$$



USA.gov is the U.S. government's official web portal to all federal, state and local government web resources and services.